FPO4063 LFPG-EFHK

Flight info

Callsign FPO4063
Flight time 2h 25m
Altitude 36000
Route NURMO DCT CMB DCT VEKIN DCT ADUTO N873 VICOT/N0440F370 DCT SUSET DCT ALASA DCT INRER DCT GOTAL DCT ALAMI DCT OKEVU DCT EVADI Y370 DIVAM
Aircraft B738/M-SDE2E3FGHIRWXY/LB1

Departure

Time 2026-05-08 10:07
Airport Charles de Gaulle International Airport (LFPG)

Arrival

Time 2026-05-08 12:32
Airport Helsinki Vantaa Airport (EFHK)
Time Latitude Longitude Altitude Speed Heading
2026-05-08 09:37 49.01341 2.50280 349 ft 0 kts 190°
2026-05-08 10:00 49.01350 2.50283 360 ft 4 kts 190°
2026-05-08 10:00 49.01376 2.50289 358 ft 4 kts 185°
2026-05-08 10:00 49.01403 2.50288 355 ft 4 kts 161°
2026-05-08 10:01 49.01421 2.50268 358 ft 4 kts 102°
2026-05-08 10:01 49.01422 2.50258 357 ft 1 kts 85°
2026-05-08 10:03 49.01422 2.50260 357 ft 1 kts 85°
2026-05-08 10:03 49.01426 2.50333 358 ft 10 kts 85°
2026-05-08 10:04 49.01431 2.50449 356 ft 12 kts 86°
2026-05-08 10:04 49.01439 2.50613 349 ft 18 kts 85°
2026-05-08 10:04 49.01450 2.50815 349 ft 21 kts 85°
2026-05-08 10:04 49.01462 2.51032 349 ft 20 kts 85°
2026-05-08 10:05 49.01481 2.51239 351 ft 20 kts 63°
2026-05-08 10:05 49.01602 2.51289 357 ft 19 kts 355°
2026-05-08 10:05 49.01732 2.51277 356 ft 18 kts
2026-05-08 10:05 49.01857 2.51260 362 ft 18 kts 354°
2026-05-08 10:06 49.01977 2.51267 359 ft 17 kts 22°
2026-05-08 10:06 49.02056 2.51396 355 ft 17 kts 62°
2026-05-08 10:06 49.02076 2.51567 360 ft 19 kts 85°
2026-05-08 10:06 49.02104 2.52083 360 ft 82 kts 85°
2026-05-08 10:07 49.02167 2.53261 356 ft 139 kts 85°
2026-05-08 10:07 49.02258 2.54933 532 ft 169 kts 84°
2026-05-08 10:07 49.02370 2.56714 1229 ft 173 kts 84°
2026-05-08 10:07 49.02488 2.58640 1741 ft 191 kts 84°
2026-05-08 10:08 49.02641 2.60666 2423 ft 191 kts 82°
2026-05-08 10:08 49.02784 2.62698 3119 ft 199 kts 86°
2026-05-08 10:08 49.02904 2.64911 3516 ft 217 kts 79°
2026-05-08 10:08 49.03432 2.67016 4264 ft 219 kts 59°
2026-05-08 10:09 49.04401 2.68939 4753 ft 236 kts 49°
2026-05-08 10:09 49.05436 2.71038 5034 ft 259 kts 68°
2026-05-08 10:09 49.05660 2.73778 5684 ft 266 kts 89°
2026-05-08 10:09 49.06070 2.76518 6391 ft 270 kts 60°
2026-05-08 10:10 49.07320 2.78644 7106 ft 273 kts 32°
2026-05-08 10:10 49.09095 2.79654 7804 ft 276 kts
2026-05-08 10:10 49.10997 2.79751 8534 ft 279 kts 358°
2026-05-08 10:10 49.12974 2.79639 9264 ft 283 kts 356°
2026-05-08 10:11 49.14949 2.79488 10007 ft 286 kts 356°
2026-05-08 10:11 49.16958 2.79334 10565 ft 295 kts 356°
2026-05-08 10:11 49.19090 2.79173 10733 ft 318 kts 356°
2026-05-08 10:11 49.21332 2.79006 11013 ft 334 kts 356°
2026-05-08 10:12 49.23685 2.78843 11581 ft 342 kts 356°
2026-05-08 10:12 49.26075 2.78691 12265 ft 345 kts 356°
2026-05-08 10:12 49.28486 2.78545 12963 ft 349 kts 356°
2026-05-08 10:12 49.30933 2.78401 13649 ft 354 kts 356°
2026-05-08 10:13 49.33414 2.78261 14292 ft 359 kts 356°
2026-05-08 10:13 49.35922 2.78120 14982 ft 362 kts 356°
2026-05-08 10:13 49.38456 2.77978 15683 ft 365 kts 356°
2026-05-08 10:13 49.41009 2.77836 16359 ft 369 kts 356°
2026-05-08 10:14 49.43589 2.77693 17027 ft 373 kts 356°
2026-05-08 10:14 49.46194 2.77547 17695 ft 377 kts 356°
2026-05-08 10:14 49.48829 2.77400 18345 ft 381 kts 356°
2026-05-08 10:14 49.51489 2.77251 18909 ft 385 kts 356°
2026-05-08 10:15 49.53263 2.77152 19301 ft 386 kts 356°
2026-05-08 10:15 49.55961 2.77001 19902 ft 389 kts 356°
2026-05-08 10:15 49.58674 2.76849 20487 ft 392 kts 356°
2026-05-08 10:15 49.61408 2.76695 21056 ft 395 kts 356°
2026-05-08 10:16 49.64164 2.76541 21623 ft 398 kts 356°
2026-05-08 10:16 49.66939 2.76384 22184 ft 401 kts 356°
2026-05-08 10:16 49.69738 2.76227 22730 ft 404 kts 356°
2026-05-08 10:16 49.72558 2.76068 23254 ft 407 kts 356°
2026-05-08 10:17 49.75399 2.75907 23746 ft 410 kts 356°
2026-05-08 10:17 49.78261 2.75745 24188 ft 413 kts 356°
2026-05-08 10:17 49.81139 2.75695 24608 ft 417 kts
2026-05-08 10:17 49.83956 2.76798 25008 ft 422 kts 24°
2026-05-08 10:18 49.86512 2.79056 25467 ft 424 kts 31°
2026-05-08 10:18 49.89002 2.81530 25881 ft 427 kts 32°
2026-05-08 10:18 49.91492 2.84056 26264 ft 430 kts 32°
2026-05-08 10:18 49.94008 2.86603 26652 ft 432 kts 32°
2026-05-08 10:19 49.96538 2.89141 27052 ft 435 kts 32°
2026-05-08 10:19 49.99092 2.91682 27452 ft 437 kts 32°
2026-05-08 10:19 50.01664 2.94228 27830 ft 439 kts 32°
2026-05-08 10:20 50.06853 2.99354 28562 ft 444 kts 32°
2026-05-08 10:20 50.09465 3.01939 28927 ft 446 kts 32°
2026-05-08 10:20 50.12088 3.04539 29274 ft 448 kts 32°
2026-05-08 10:20 50.14725 3.07157 29600 ft 451 kts 32°
2026-05-08 10:21 50.17377 3.09793 29937 ft 453 kts 32°
2026-05-08 10:21 50.19997 3.12402 30247 ft 455 kts 32°
2026-05-08 10:21 50.22684 3.15050 30507 ft 457 kts 30°
2026-05-08 10:21 50.25509 3.17320 30779 ft 457 kts 23°
2026-05-08 10:22 50.28421 3.19313 31134 ft 456 kts 22°
2026-05-08 10:22 50.31344 3.21248 31516 ft 455 kts 22°
2026-05-08 10:22 50.34249 3.23201 31871 ft 454 kts 22°
2026-05-08 10:22 50.37145 3.25201 32176 ft 455 kts 23°
2026-05-08 10:23 50.40031 3.27225 32503 ft 455 kts 23°
2026-05-08 10:23 50.42891 3.29343 32841 ft 454 kts 25°
2026-05-08 10:23 50.45706 3.31584 33189 ft 454 kts 26°
2026-05-08 10:23 50.48509 3.33832 33486 ft 454 kts 26°
2026-05-08 10:24 50.51336 3.36073 33798 ft 454 kts 25°
2026-05-08 10:24 50.54193 3.38181 34101 ft 453 kts 22°
2026-05-08 10:24 50.57081 3.40170 34368 ft 452 kts 22°
2026-05-08 10:24 50.59964 3.42105 34603 ft 452 kts 21°
2026-05-08 10:25 50.62868 3.44053 34831 ft 453 kts 21°
2026-05-08 10:25 50.65757 3.46008 35067 ft 453 kts 22°
2026-05-08 10:25 50.68647 3.47983 35317 ft 452 kts 22°
2026-05-08 10:25 50.71529 3.49966 35539 ft 452 kts 22°
2026-05-08 10:26 50.74417 3.51963 35765 ft 452 kts 22°
2026-05-08 10:26 50.77295 3.53958 36000 ft 452 kts 22°
2026-05-08 10:26 50.80183 3.55962 36094 ft 455 kts 22°
2026-05-08 10:27 50.86034 3.60028 36105 ft 463 kts 22°
2026-05-08 10:27 50.91974 3.64169 36106 ft 470 kts 22°
2026-05-08 10:28 50.97986 3.68473 36103 ft 477 kts 23°
2026-05-08 10:28 51.04048 3.72869 36093 ft 480 kts 23°
2026-05-08 10:29 51.10093 3.77252 36082 ft 481 kts 23°
2026-05-08 10:29 51.16186 3.81674 36080 ft 481 kts 23°
2026-05-08 10:30 51.22270 3.86101 36093 ft 481 kts 23°
2026-05-08 10:30 51.28354 3.90538 36094 ft 481 kts 23°
2026-05-08 10:31 51.34437 3.94985 36093 ft 480 kts 23°
2026-05-08 10:31 51.40493 3.99426 36093 ft 479 kts 23°
2026-05-08 10:32 51.46512 4.04005 36094 ft 479 kts 29°
2026-05-08 10:32 51.51739 4.10537 36101 ft 479 kts 45°
2026-05-08 10:33 51.56355 4.18235 36100 ft 479 kts 46°
2026-05-08 10:33 51.60942 4.25963 36101 ft 479 kts 45°
2026-05-08 10:34 51.65591 4.33700 36104 ft 479 kts 45°
2026-05-08 10:34 51.70226 4.41377 36105 ft 479 kts 45°
2026-05-08 10:35 51.74874 4.49091 36122 ft 478 kts 45°
2026-05-08 10:35 51.79509 4.56810 36123 ft 479 kts 45°
2026-05-08 10:36 51.84129 4.64535 36135 ft 478 kts 45°
2026-05-08 10:36 51.88746 4.72280 36129 ft 478 kts 45°
2026-05-08 10:37 51.93364 4.80050 36126 ft 478 kts 45°
2026-05-08 10:37 51.97776 4.87496 36118 ft 478 kts 46°
2026-05-08 10:38 52.02374 4.95282 36124 ft 478 kts 46°
2026-05-08 10:38 52.06977 5.03100 36126 ft 478 kts 46°
2026-05-08 10:39 52.11562 5.10909 36128 ft 477 kts 46°
2026-05-08 10:39 52.16180 5.18674 36124 ft 477 kts 45°
2026-05-08 10:40 52.20834 5.26270 36129 ft 477 kts 44°
2026-05-08 10:40 52.25552 5.33975 36125 ft 477 kts 44°
2026-05-08 10:41 52.30189 5.41606 36132 ft 476 kts 45°
2026-05-08 10:41 52.34846 5.49314 36131 ft 476 kts 45°
2026-05-08 10:42 52.39495 5.57040 36133 ft 476 kts 45°
2026-05-08 10:42 52.44136 5.64776 36131 ft 476 kts 45°
2026-05-08 10:43 52.48774 5.72530 36137 ft 476 kts 45°
2026-05-08 10:43 52.53404 5.80297 36129 ft 476 kts 45°
2026-05-08 10:44 52.58029 5.88079 36135 ft 476 kts 45°
2026-05-08 10:44 52.62649 5.95877 36134 ft 475 kts 45°
2026-05-08 10:45 52.67226 6.03630 36141 ft 475 kts 45°
2026-05-08 10:45 52.71829 6.11450 36139 ft 475 kts 45°
2026-05-08 10:46 52.76426 6.19284 36143 ft 475 kts 45°
2026-05-08 10:46 52.81018 6.27137 36145 ft 475 kts 45°
2026-05-08 10:47 52.84995 6.33958 36145 ft 475 kts 45°
2026-05-08 10:47 52.89578 6.41843 36155 ft 475 kts 45°
2026-05-08 10:48 52.94154 6.49741 36160 ft 475 kts 45°
2026-05-08 10:48 52.98726 6.57658 36155 ft 475 kts 46°
2026-05-08 10:49 53.03292 6.65590 36163 ft 475 kts 46°
2026-05-08 10:49 53.07851 6.73537 36157 ft 475 kts 46°
2026-05-08 10:50 53.12404 6.81498 36164 ft 475 kts 46°
2026-05-08 10:50 53.16952 6.89477 36160 ft 475 kts 46°
2026-05-08 10:51 53.21494 6.97473 36181 ft 475 kts 46°
2026-05-08 10:51 53.26031 7.05485 36178 ft 475 kts 46°
2026-05-08 10:52 53.30557 7.13505 36190 ft 474 kts 46°
2026-05-08 10:52 53.35076 7.21539 36191 ft 474 kts 46°
2026-05-08 10:53 53.39586 7.29584 36194 ft 474 kts 46°
2026-05-08 10:53 53.44089 7.37642 36186 ft 473 kts 46°
2026-05-08 10:54 53.48583 7.45713 36185 ft 473 kts 46°
2026-05-08 10:54 53.53076 7.53806 36184 ft 474 kts 46°
2026-05-08 10:55 53.57560 7.61912 36187 ft 473 kts 46°
2026-05-08 10:55 53.62042 7.70041 36183 ft 473 kts 46°
2026-05-08 10:56 53.66510 7.78172 36180 ft 473 kts 46°
2026-05-08 10:56 53.70973 7.86320 36189 ft 472 kts 47°
2026-05-08 10:57 53.75416 7.94461 36195 ft 471 kts 47°
2026-05-08 10:57 53.82072 8.06705 36196 ft 470 kts 47°
2026-05-08 10:58 53.86489 8.14866 36196 ft 470 kts 47°
2026-05-08 10:58 53.90899 8.23040 36207 ft 470 kts 47°
2026-05-08 10:59 53.95300 8.31225 36203 ft 469 kts 47°
2026-05-08 10:59 53.99695 8.39428 36191 ft 469 kts 47°
2026-05-08 11:00 54.04075 8.47631 36197 ft 469 kts 47°
2026-05-08 11:00 54.08452 8.55854 36196 ft 469 kts 47°
2026-05-08 11:01 54.12825 8.64100 36194 ft 469 kts 47°
2026-05-08 11:01 54.17190 8.72356 36196 ft 468 kts 47°
2026-05-08 11:02 54.23021 8.83432 36200 ft 469 kts 47°
2026-05-08 11:03 54.27372 8.91728 36200 ft 469 kts 47°
2026-05-08 11:03 54.31679 8.99970 36207 ft 469 kts 47°
2026-05-08 11:04 54.36024 9.08311 36203 ft 469 kts 47°
2026-05-08 11:04 54.40366 9.16678 36202 ft 469 kts 47°
2026-05-08 11:05 54.44704 9.25064 36213 ft 470 kts 47°
2026-05-08 11:05 54.49065 9.33522 36212 ft 471 kts 47°
2026-05-08 11:06 54.53417 9.41995 36217 ft 471 kts 47°
2026-05-08 11:06 54.57717 9.50398 36211 ft 472 kts 47°
2026-05-08 11:07 54.62050 9.58892 36216 ft 472 kts 48°
2026-05-08 11:07 54.66387 9.67423 36212 ft 472 kts 48°
2026-05-08 11:08 54.70718 9.75974 36236 ft 472 kts 48°
2026-05-08 11:08 54.75027 9.84512 36238 ft 472 kts 48°
2026-05-08 11:09 54.79344 9.93092 36246 ft 471 kts 48°
2026-05-08 11:09 54.83572 10.01737 36241 ft 471 kts 50°
2026-05-08 11:10 54.87657 10.10680 36245 ft 471 kts 51°
2026-05-08 11:10 54.91700 10.19626 36250 ft 471 kts 51°
2026-05-08 11:11 54.95759 10.28565 36254 ft 471 kts 51°
2026-05-08 11:11 54.99826 10.37507 36269 ft 472 kts 51°
2026-05-08 11:12 55.03908 10.46502 36522 ft 473 kts 51°
2026-05-08 11:12 55.05918 10.50946 36671 ft 473 kts 51°
2026-05-08 11:12 55.07958 10.55464 36778 ft 475 kts 51°
2026-05-08 11:12 55.10031 10.60063 36908 ft 475 kts 51°
2026-05-08 11:13 55.12042 10.64535 37046 ft 476 kts 51°
2026-05-08 11:13 55.14089 10.69093 37174 ft 475 kts 51°
2026-05-08 11:13 55.16127 10.73642 37249 ft 476 kts 51°
2026-05-08 11:14 55.20226 10.82815 37268 ft 479 kts 51°
2026-05-08 11:14 55.24325 10.92022 37262 ft 479 kts 51°
2026-05-08 11:15 55.28418 11.01252 37264 ft 480 kts 51°
2026-05-08 11:15 55.32491 11.10470 37264 ft 480 kts 51°
2026-05-08 11:16 55.36573 11.19742 37269 ft 480 kts 52°
2026-05-08 11:16 55.40660 11.29063 37268 ft 480 kts 52°
2026-05-08 11:17 55.44727 11.38372 37262 ft 481 kts 52°
2026-05-08 11:17 55.48790 11.47709 37267 ft 481 kts 52°
2026-05-08 11:18 55.52853 11.57081 37273 ft 481 kts 52°
2026-05-08 11:18 55.56910 11.66474 37274 ft 481 kts 52°
2026-05-08 11:19 55.60960 11.75888 37291 ft 480 kts 52°
2026-05-08 11:19 55.64996 11.85304 37289 ft 480 kts 52°
2026-05-08 11:20 55.69000 11.94685 37292 ft 480 kts 52°
2026-05-08 11:20 55.73064 12.04238 37193 ft 480 kts 53°
2026-05-08 11:21 55.77030 12.13600 37288 ft 477 kts 53°
2026-05-08 11:21 55.81008 12.23027 37280 ft 476 kts 53°
2026-05-08 11:22 55.84969 12.32450 37294 ft 475 kts 53°
2026-05-08 11:22 55.88918 12.41879 37286 ft 475 kts 54°
2026-05-08 11:23 55.92861 12.51331 37292 ft 474 kts 54°
2026-05-08 11:23 55.96785 12.60776 37282 ft 473 kts 54°
2026-05-08 11:24 56.00697 12.70227 37286 ft 473 kts 54°
2026-05-08 11:24 56.04597 12.79683 37287 ft 473 kts 54°
2026-05-08 11:25 56.08557 12.89071 37288 ft 472 kts 53°
2026-05-08 11:25 56.12600 12.98339 37288 ft 473 kts 52°
2026-05-08 11:26 56.16645 13.07635 37294 ft 473 kts 53°
2026-05-08 11:26 56.20667 13.16970 37291 ft 472 kts 53°
2026-05-08 11:27 56.24673 13.26329 37288 ft 472 kts 53°
2026-05-08 11:27 56.28671 13.35714 37296 ft 472 kts 53°
2026-05-08 11:28 56.32658 13.45105 37278 ft 472 kts 53°
2026-05-08 11:28 56.36641 13.54523 37271 ft 472 kts 53°
2026-05-08 11:29 56.40619 13.63964 37274 ft 472 kts 54°
2026-05-08 11:29 56.44587 13.73420 37279 ft 472 kts 54°
2026-05-08 11:30 56.48539 13.82874 37286 ft 471 kts 54°
2026-05-08 11:30 56.52484 13.92349 37281 ft 471 kts 54°
2026-05-08 11:31 56.56417 14.01833 37280 ft 470 kts 54°
2026-05-08 11:31 56.60342 14.11332 37281 ft 470 kts 54°
2026-05-08 11:32 56.64257 14.20844 37281 ft 470 kts 54°
2026-05-08 11:32 56.68119 14.30264 37286 ft 470 kts 54°
2026-05-08 11:33 56.72029 14.39841 37285 ft 469 kts 54°
2026-05-08 11:33 56.75912 14.49389 37288 ft 469 kts 54°
2026-05-08 11:34 56.79790 14.58963 37288 ft 469 kts 55°
2026-05-08 11:34 56.83656 14.68545 37291 ft 468 kts 55°
2026-05-08 11:35 56.87511 14.78137 37294 ft 468 kts 55°
2026-05-08 11:35 56.91358 14.87745 37293 ft 468 kts 55°
2026-05-08 11:36 56.95197 14.97375 37294 ft 468 kts 55°
2026-05-08 11:36 56.99028 15.07019 37294 ft 468 kts 56°
2026-05-08 11:37 57.02849 15.16680 37293 ft 467 kts 56°
2026-05-08 11:37 57.06661 15.26359 37298 ft 467 kts 56°
2026-05-08 11:38 57.10464 15.36049 37300 ft 467 kts 56°
2026-05-08 11:38 57.14256 15.45752 37304 ft 467 kts 56°
2026-05-08 11:39 57.18042 15.55474 37312 ft 467 kts 56°
2026-05-08 11:39 57.21821 15.65225 37311 ft 467 kts 56°
2026-05-08 11:40 57.25585 15.74975 37313 ft 467 kts 56°
2026-05-08 11:40 57.29347 15.84759 37318 ft 467 kts 56°
2026-05-08 11:41 57.33104 15.94565 37313 ft 467 kts 56°
2026-05-08 11:41 57.36849 16.04384 37321 ft 467 kts 56°
2026-05-08 11:42 57.40591 16.14237 37328 ft 467 kts 56°
2026-05-08 11:42 57.44323 16.24101 37331 ft 467 kts 56°
2026-05-08 11:43 57.48045 16.33976 37331 ft 467 kts 57°
2026-05-08 11:43 57.51738 16.43822 37338 ft 467 kts 57°
2026-05-08 11:44 57.55444 16.53740 37344 ft 467 kts 57°
2026-05-08 11:44 57.59148 16.63693 37348 ft 467 kts 57°
2026-05-08 11:45 57.62841 16.73657 37347 ft 467 kts 57°
2026-05-08 11:45 57.66524 16.83639 37348 ft 467 kts 57°
2026-05-08 11:46 57.70198 16.93635 37350 ft 467 kts 57°
2026-05-08 11:46 57.73869 17.03664 37348 ft 467 kts 57°
2026-05-08 11:47 57.77528 17.13703 37350 ft 467 kts 57°
2026-05-08 11:47 57.81181 17.23769 37348 ft 467 kts 57°
2026-05-08 11:48 57.84827 17.33857 37350 ft 467 kts 57°
2026-05-08 11:48 57.88443 17.43905 37349 ft 467 kts 57°
2026-05-08 11:49 57.92075 17.54042 37350 ft 467 kts 57°
2026-05-08 11:49 57.95700 17.64198 37350 ft 468 kts 57°
2026-05-08 11:50 57.99319 17.74384 37350 ft 468 kts 57°
2026-05-08 11:50 58.02931 17.84593 37350 ft 468 kts 57°
2026-05-08 11:51 58.06532 17.94815 37353 ft 468 kts 57°
2026-05-08 11:51 58.10131 18.05075 37353 ft 468 kts 58°
2026-05-08 11:52 58.13723 18.15360 37353 ft 469 kts 58°
2026-05-08 11:52 58.16705 18.23930 37358 ft 469 kts 58°
2026-05-08 11:53 58.20290 18.34278 37359 ft 469 kts 58°
2026-05-08 11:53 58.23868 18.44644 37358 ft 470 kts 58°
2026-05-08 11:54 58.27432 18.55005 37357 ft 470 kts 58°
2026-05-08 11:54 58.31010 18.65434 37365 ft 470 kts 58°
2026-05-08 11:55 58.34551 18.75802 37362 ft 470 kts 58°
2026-05-08 11:55 58.38108 18.86267 37365 ft 471 kts 58°
2026-05-08 11:56 58.41660 18.96761 37369 ft 471 kts 58°
2026-05-08 11:56 58.45205 19.07284 37356 ft 471 kts 58°
2026-05-08 11:57 58.48743 19.17832 37360 ft 472 kts 58°
2026-05-08 11:57 58.52277 19.28417 37356 ft 472 kts 58°
2026-05-08 11:58 58.55802 19.39021 37366 ft 473 kts 58°
2026-05-08 11:58 58.59323 19.49659 37366 ft 473 kts 58°
2026-05-08 11:59 58.64594 19.65679 37370 ft 474 kts 58°
2026-05-08 11:59 58.68104 19.76405 37365 ft 474 kts 58°
2026-05-08 12:00 58.71605 19.87155 37366 ft 474 kts 58°
2026-05-08 12:00 58.75099 19.97930 37362 ft 475 kts 58°
2026-05-08 12:01 58.78589 20.08744 37370 ft 476 kts 59°
2026-05-08 12:01 58.82075 20.19595 37369 ft 476 kts 59°
2026-05-08 12:02 58.85554 20.30476 37369 ft 476 kts 59°
2026-05-08 12:02 58.89029 20.41394 37368 ft 477 kts 59°
2026-05-08 12:03 58.92496 20.52338 37365 ft 477 kts 59°
2026-05-08 12:03 58.95930 20.63228 37370 ft 478 kts 59°
2026-05-08 12:04 58.99384 20.74234 37356 ft 478 kts 59°
2026-05-08 12:04 59.02832 20.85269 37380 ft 478 kts 59°
2026-05-08 12:05 59.06280 20.96322 37368 ft 476 kts 59°
2026-05-08 12:05 59.09679 21.07089 37366 ft 462 kts 58°
2026-05-08 12:06 59.13030 21.17730 37150 ft 463 kts 58°
2026-05-08 12:06 59.14712 21.23100 36654 ft 463 kts 58°
2026-05-08 12:06 59.16382 21.28451 36081 ft 461 kts 59°
2026-05-08 12:07 59.18046 21.33795 35457 ft 461 kts 59°
2026-05-08 12:07 59.19710 21.39153 34833 ft 461 kts 59°
2026-05-08 12:07 59.21372 21.44513 34156 ft 462 kts 59°
2026-05-08 12:07 59.23034 21.49885 33421 ft 462 kts 59°
2026-05-08 12:08 59.24689 21.55248 32767 ft 461 kts 59°
2026-05-08 12:08 59.26337 21.60608 32169 ft 458 kts 59°
2026-05-08 12:08 59.27964 21.65914 31706 ft 453 kts 59°
2026-05-08 12:08 59.29574 21.71177 31211 ft 449 kts 59°
2026-05-08 12:09 59.31171 21.76404 30739 ft 445 kts 59°
2026-05-08 12:09 59.32733 21.81527 30241 ft 442 kts 59°
2026-05-08 12:09 59.34299 21.86673 29728 ft 437 kts 59°
2026-05-08 12:09 59.35843 21.91757 29259 ft 433 kts 59°
2026-05-08 12:10 59.37374 21.96801 28782 ft 427 kts 59°
2026-05-08 12:10 59.38887 22.01798 28324 ft 426 kts 59°
2026-05-08 12:10 59.40405 22.06818 27846 ft 431 kts 59°
2026-05-08 12:10 59.41933 22.11884 27363 ft 429 kts 59°
2026-05-08 12:11 59.43442 22.16902 26889 ft 424 kts 59°
2026-05-08 12:11 59.44933 22.21867 26417 ft 420 kts 59°
2026-05-08 12:11 59.46411 22.26804 25961 ft 417 kts 58°
2026-05-08 12:11 59.47873 22.31692 25513 ft 413 kts 58°
2026-05-08 12:12 59.49323 22.36548 25053 ft 410 kts 58°
2026-05-08 12:12 59.50757 22.41364 24602 ft 407 kts 58°
2026-05-08 12:12 59.52180 22.46158 24159 ft 404 kts 58°
2026-05-08 12:12 59.53587 22.50918 23674 ft 401 kts 58°
2026-05-08 12:13 59.54983 22.55653 23178 ft 398 kts 58°
2026-05-08 12:13 59.56364 22.60349 22724 ft 394 kts 58°
2026-05-08 12:13 59.57729 22.64997 22266 ft 390 kts 58°
2026-05-08 12:13 59.59080 22.69606 21803 ft 387 kts 58°
2026-05-08 12:14 59.60420 22.74188 21363 ft 384 kts 58°
2026-05-08 12:14 59.61749 22.78737 20928 ft 381 kts 58°
2026-05-08 12:14 59.63065 22.83250 20488 ft 378 kts 58°
2026-05-08 12:14 59.64369 22.87733 20058 ft 375 kts 58°
2026-05-08 12:15 59.65662 22.92184 19628 ft 372 kts 58°
2026-05-08 12:15 59.66948 22.96618 19200 ft 370 kts 58°
2026-05-08 12:15 59.68221 23.01018 18776 ft 368 kts 57°
2026-05-08 12:15 59.69486 23.05411 18297 ft 366 kts 58°
2026-05-08 12:16 59.70736 23.09771 17830 ft 363 kts 58°
2026-05-08 12:16 59.71976 23.14108 17407 ft 360 kts 58°
2026-05-08 12:16 59.73204 23.18412 16978 ft 357 kts 58°
2026-05-08 12:16 59.74420 23.22675 16552 ft 354 kts 58°
2026-05-08 12:17 59.75626 23.26913 16134 ft 352 kts 58°
2026-05-08 12:17 59.76823 23.31126 15716 ft 349 kts 58°
2026-05-08 12:17 59.78009 23.35310 15297 ft 347 kts 58°
2026-05-08 12:17 59.79188 23.39471 14894 ft 345 kts 58°
2026-05-08 12:18 59.80356 23.43607 14489 ft 343 kts 58°
2026-05-08 12:18 59.81520 23.47728 14067 ft 341 kts 58°
2026-05-08 12:18 59.82674 23.51821 13598 ft 339 kts 58°
2026-05-08 12:18 59.83820 23.55899 13169 ft 336 kts 58°
2026-05-08 12:19 59.84956 23.59946 12748 ft 333 kts 58°
2026-05-08 12:19 59.86090 23.63962 12261 ft 333 kts 58°
2026-05-08 12:19 59.87222 23.67958 11838 ft 330 kts 58°
2026-05-08 12:19 59.88337 23.71900 11645 ft 321 kts 58°
2026-05-08 12:20 59.89412 23.75711 11494 ft 311 kts 58°
2026-05-08 12:20 59.90453 23.79412 11347 ft 301 kts 58°
2026-05-08 12:20 59.91428 23.82984 11162 ft 287 kts 63°
2026-05-08 12:20 59.92122 23.86666 10910 ft 280 kts 70°
2026-05-08 12:21 59.92684 23.90350 10616 ft 277 kts 71°
2026-05-08 12:21 59.93226 23.94016 10439 ft 277 kts 71°
2026-05-08 12:21 59.93791 23.97770 9822 ft 284 kts 71°
2026-05-08 12:21 59.94374 24.01584 9256 ft 283 kts 71°
2026-05-08 12:22 59.94944 24.05264 8708 ft 281 kts 70°
2026-05-08 12:22 59.95522 24.08963 8164 ft 278 kts 70°
2026-05-08 12:22 59.96106 24.12682 7620 ft 276 kts 70°
2026-05-08 12:22 59.96679 24.16333 7090 ft 274 kts 70°
2026-05-08 12:23 59.97238 24.19901 6564 ft 272 kts 70°
2026-05-08 12:23 59.97811 24.23529 5996 ft 269 kts 68°
2026-05-08 12:23 59.98842 24.26533 5499 ft 260 kts 39°
2026-05-08 12:23 60.00209 24.28801 5109 ft 253 kts 38°
2026-05-08 12:24 60.01549 24.31037 4741 ft 247 kts 39°
2026-05-08 12:24 60.02854 24.33243 4483 ft 244 kts 39°
2026-05-08 12:24 60.04142 24.35445 4224 ft 243 kts 39°
2026-05-08 12:24 60.05423 24.37624 3978 ft 240 kts 39°
2026-05-08 12:25 60.06685 24.39807 3712 ft 240 kts 40°
2026-05-08 12:25 60.07921 24.41970 3497 ft 238 kts 40°
2026-05-08 12:25 60.09184 24.44171 3253 ft 238 kts 39°
2026-05-08 12:25 60.10434 24.46324 2987 ft 243 kts 39°
2026-05-08 12:26 60.11699 24.48578 2925 ft 235 kts 41°
2026-05-08 12:26 60.12904 24.50708 2902 ft 226 kts 40°
2026-05-08 12:26 60.14066 24.52757 2849 ft 220 kts 41°
2026-05-08 12:26 60.15087 24.54908 2706 ft 205 kts 47°
2026-05-08 12:27 60.16006 24.56962 2544 ft 191 kts 45°
2026-05-08 12:27 60.16880 24.58855 2513 ft 179 kts 46°
2026-05-08 12:27 60.17715 24.60713 2520 ft 182 kts 45°
2026-05-08 12:27 60.18583 24.62598 2581 ft 188 kts 47°
2026-05-08 12:28 60.19472 24.64576 2531 ft 190 kts 45°
2026-05-08 12:28 60.20358 24.66477 2579 ft 184 kts 47°
2026-05-08 12:28 60.21214 24.68237 2578 ft 169 kts 44°
2026-05-08 12:28 60.22020 24.69933 2573 ft 166 kts 44°
2026-05-08 12:29 60.22834 24.71651 2514 ft 174 kts 47°
2026-05-08 12:29 60.23579 24.73453 2451 ft 166 kts 44°
2026-05-08 12:29 60.24373 24.75123 2249 ft 165 kts 44°
2026-05-08 12:29 60.25119 24.76803 2080 ft 160 kts 46°
2026-05-08 12:30 60.25888 24.78451 1779 ft 157 kts 47°
2026-05-08 12:30 60.26591 24.80011 1573 ft 147 kts 44°
2026-05-08 12:30 60.27294 24.81531 1380 ft 151 kts 44°
2026-05-08 12:30 60.28004 24.83106 1145 ft 153 kts 46°
2026-05-08 12:31 60.28702 24.84679 961 ft 150 kts 45°
2026-05-08 12:31 60.29412 24.86245 742 ft 154 kts 44°
2026-05-08 12:31 60.30120 24.87828 542 ft 149 kts 44°
2026-05-08 12:31 60.30820 24.89344 324 ft 147 kts 43°
2026-05-08 12:32 60.31497 24.90851 167 ft 141 kts 43°
2026-05-08 12:32 60.32078 24.92107 156 ft 95 kts 47°
2026-05-08 12:32 60.32381 24.92821 171 ft 50 kts 58°
2026-05-08 12:32 60.32466 24.93339 173 ft 33 kts 80°
2026-05-08 12:33 60.32502 24.93673 171 ft 18 kts 76°
2026-05-08 12:33 60.32535 24.93914 169 ft 17 kts 62°
2026-05-08 12:33 60.32610 24.94087 170 ft 16 kts 46°
2026-05-08 12:33 60.32706 24.94295 171 ft 22 kts 47°
2026-05-08 12:34 60.32807 24.94515 173 ft 22 kts 47°
2026-05-08 12:34 60.32910 24.94736 174 ft 21 kts 47°
2026-05-08 12:34 60.33008 24.94956 175 ft 21 kts 48°
2026-05-08 12:34 60.33103 24.95169 176 ft 20 kts 47°
2026-05-08 12:35 60.33200 24.95403 180 ft 23 kts 67°
2026-05-08 12:35 60.33171 24.95594 180 ft 23 kts 136°
2026-05-08 12:35 60.33044 24.95800 180 ft 23 kts 150°
2026-05-08 12:35 60.32849 24.96031 173 ft 26 kts 149°
2026-05-08 12:36 60.32749 24.96149 172 ft 25 kts 150°
2026-05-08 12:36 60.32606 24.96316 172 ft 23 kts 149°
2026-05-08 12:36 60.32470 24.96476 173 ft 22 kts 149°
2026-05-08 12:36 60.32335 24.96632 169 ft 24 kts 152°
2026-05-08 12:37 60.32182 24.96804 165 ft 25 kts 149°
2026-05-08 12:37 60.32037 24.96977 165 ft 23 kts 149°
2026-05-08 12:37 60.31895 24.97121 165 ft 22 kts 153°
2026-05-08 12:37 60.31758 24.97262 165 ft 22 kts 153°
2026-05-08 12:38 60.31625 24.97399 165 ft 21 kts 152°
2026-05-08 12:38 60.31488 24.97546 159 ft 24 kts 150°
2026-05-08 12:38 60.31381 24.97724 157 ft 19 kts 112°
2026-05-08 12:38 60.31279 24.97905 157 ft 22 kts 151°
2026-05-08 12:39 60.31133 24.98056 158 ft 23 kts 154°
2026-05-08 12:39 60.30995 24.98208 157 ft 22 kts 131°
2026-05-08 12:39 60.31020 24.98493 154 ft 22 kts 64°
2026-05-08 12:39 60.31084 24.98751 151 ft 18 kts 63°
2026-05-08 12:40 60.31067 24.98963 151 ft 18 kts 149°
2026-05-08 12:40 60.30958 24.99076 151 ft 17 kts 153°
2026-05-08 12:40 60.30893 24.99153 151 ft 7 kts 119°
2026-05-08 12:40 60.30904 24.99254 152 ft 6 kts 63°
2026-05-08 12:41 60.30907 24.99267 152 ft 0 kts 61°
2026-05-08 12:41 60.30910 24.99278 152 ft 0 kts 63°